Flag for U.S.A. Weather past 2 weeks in Babylon, New York, U.S.A.

Now
53 °F

Sunny.


Feels Like: 50 °F
Forecast: 37 / 51 °F
Wind: 9 mph from South

Location: Republic Airport

Current Time: Dec 27, 2014 at 2:24:19 PM

Latest Report: Dec 27, 2014 at 1:53 PM


Visibility: 10 mi

Pressure: 30.19 "Hg

Humidity: 47%

Dew point: 33 °F

Location of BabylonLocation

Historic Weather in Babylon — Graph

°F

Babylon temperature yesterday

Maximum temperature yesterday: 50 °F (at 2:53 PM)
Minimum temperature yesterday: 37 °F (at 11:53 PM)
Average temperature yesterday: 43 °F

Past Weeks' High & Low Weather Summary

 TemperatureHumidityPressure
High57 °F (Dec 24, 4:53 PM)100% (Dec 24, 7:53 AM)30.33 "Hg (Dec 24, 7:53 AM)
Low31 °F (Dec 16, 1:53 AM)37% (Dec 25, 1:53 PM)29.52 "Hg (Dec 25, 3:53 AM)
Average41 °F73%30.03 "Hg
* Reported Dec 12 12:53 PM — Dec 27 12:53 PM, Babylon, Weather by CustomWeather, © 2014

Note: Actual official high and low records may vary slightly from our data, if they occured in-between our weather recording intervals... More about our weather records

Advertising

Babylon weather history for previous 24 hours

 ConditionsComfort  
Time TempWeatherWind HumidityBarometerVisibility
12:53 PM
Dec 27
54 °FSunny.7 mph47%30.20 "Hg10 mi
11:53 AM53 °FSunny.No wind47%30.23 "Hg10 mi
10:53 AM51 °FSunny.No wind52%30.25 "Hg10 mi
9:53 AM48 °FSunny.3 mph59%30.27 "Hg10 mi
8:53 AM42 °FSunny.No wind73%30.27 "Hg10 mi
7:53 AM37 °FSunny.No wind79%30.25 "Hg10 mi
6:53 AM36 °FClear.No wind79%30.24 "Hg10 mi
5:53 AM35 °FClear.3 mph82%30.22 "Hg10 mi
4:53 AM33 °FClear.No wind85%30.20 "Hg10 mi
3:53 AM34 °FClear.No wind82%30.20 "Hg10 mi
2:53 AM36 °FClear.5 mph75%30.21 "Hg10 mi
1:53 AM38 °FClear.3 mph73%30.20 "Hg10 mi
12:53 AM39 °FClear.5 mph70%30.20 "Hg10 mi
11:53 PM
Dec 26
37 °FClear.8 mph76%30.20 "Hg10 mi
10:53 PM39 °FClear.7 mph73%30.22 "Hg10 mi
9:53 PM40 °FClear.7 mph68%30.23 "Hg10 mi
8:53 PM41 °FClear.5 mph65%30.23 "Hg10 mi
7:53 PM42 °FClear.7 mph62%30.22 "Hg10 mi
6:53 PM42 °FClear.6 mph62%30.21 "Hg10 mi
5:53 PM44 °FClear.5 mph60%30.22 "Hg10 mi
4:53 PM46 °FClear.7 mph50%30.20 "Hg10 mi
3:53 PM49 °FSunny.6 mph44%30.19 "Hg10 mi
2:53 PM50 °FSunny.7 mph44%30.18 "Hg10 mi
Weather by CustomWeather, © 2014

See weather overviewHow to use our weather pages